BREEZE-M R/B, 40385

Orbit data source: Space-Track

BREEZE-M R/B, 40385 is space debris in HEO originally from a launch on Sun, 01 Feb 2015 UTC launched from the Tyuratam Missile And Space Complex (TTMTR). Debris objects in space refer to the collection of defunct objects orbiting the Earth. Examples of debris include non-operational satellites, rocket bodies, and fragments generated from explosions, collisions, or faulty payload assembly.

Loading next visibility...
BREEZE-M R/B details
Identifier
40385, 2015-005B
Orbit
HEO
Last TLE update8 hours ago
Origin
Flag of CISKhrunichev (CIS)
ManufacturerKhrunichev
MissionSpacecraft
Bus & MotorBRIZ, Unknown motor
Mass~1,600 kg wet, 1,600 kg dry
Launch date (UTC)
2015-02-01 (10 years ago)
Launch vehicleUnknown
Launch site
Tyuratam Missile And Space Complex (TTMTR)
Object type
Payload
Rocket body
Debris
Shape & HBRCyl, 4 m
Radar Cross Section14.451 m², Large (>1 m²)

Expand to show TLE details & history

TLE from 8 hours ago
0 BREEZE-M R/B
1 40385U 15005B   24361.20340734 -.00000035  00000-0  00000-0 0  9999
2 40385  28.2596 324.5922 7630365  49.2149 355.3944  1.11107857 40176
Epoch: 2024-12-26T04:52Z
Definitive object data (Epoch: 2024-12-26T04:52:54.394Z)
Latitude0.00014°
Longitude156.12237°
Altitude4,679.708 km
Speed7.872 km/s
True Right ascension21h 38m 08s
True Declination0° 00' 00"
Sunlit
Object was in daylight at TLE epoch
Visualization TLE readout
Latitude-16.86913°
Longitude10.43212°
Altitude58,715.654 km
Speed1.458 km/s
Apparent Right ascension11h 54m 19s
Apparent Declination-21° 47' 24"
Sunlit
Object is in daylight
Visualization observer readout
Local Sidereal Time12:07:49
Azimuth183.56° SSW
Elevation28.213°
Doppler factor1
Orbital elements
Apogee altitude63,049.207 km
Perigee altitude2,953.347 km
Semi-major axis39,379.414 km
Eccentricity0.7630365
Inclination28.2596°
RAAN324.5922°
Arg. of periapsis49.2149°
True anomaly312.28412°
Mean anomaly355.3944°
Eccentric anomaly341.58048°
Mean motion0.27774 °/min
BSTARUnknown
Orbital period1296.17 mins
Loading maneuver chart data...
Loading historical data...
Loading historical data...
Loading historical data...
Loading historical data...
Loading historical data...
Loading historical data...
Loading historical data...
Other satellites on launch #5 in the year 2015 (2015-02-01 UTC)

BREEZE-M R/B Visibility forecast

Observer location: undefined°, undefined

Span
Click to sort rows by Start time (UTC) header in descending order
Start Az.
Max El. time (UTC)
Max El. Az.
Max El.
End time (UTC)
End Az.
221 mins2024-12-26 12:46:15.778Z183.559° SSW2024-12-26 12:46:15.778Z183.559° SSW25.297°2024-12-26 16:27:15.778Z223.295° SW
44 mins2024-12-27 02:43:15.778Z239.7° WSW2024-12-27 02:55:15.778Z162.607° S39.519°2024-12-27 03:27:15.778Z92.541° ESE
270 mins2024-12-27 08:16:15.778Z123.84° SE2024-12-27 12:34:15.778Z172.506° S22.92°2024-12-27 12:46:15.778Z175.017° S
|